Погода в Кучугурах

Россия / Воронежская область     51°35′47″N   38°19′44″E
темп.,
°C
ветер,
м/с
пор.,
м/с
влажн.,
%
обл.,
%
осадки,
мм/ч
давл.,
гПа
погр.,
м
19 апреля, пн
пн1900:00+7вюв4685100 0.3 1017212
03:00+6юз3592100 1.3 1017310
06:00+6вюв119088 0.1 101798
09:00+9в337625 0.2 1017516
12:00+12в226017 0.3 10161111
15:00+12всв2261100 1.6 10161132
18:00+10св2370100 0.4 1015345
21:00+9ссв4684100 1.0 1015223
20 апреля, вт
вт2000:00+8св488698 0.1 1015203
03:00+7всв489583 0.1 1014230
06:00+7в61093100 0.3 1013446
09:00+8всв5992100 0.3 1012581
12:00+9всв7989100 0.1 1009717
15:00+8всв81394100 3.1 1006733
18:00+7св81496100 9.4 1001643
21:00+6ссз6994100 13.8 998435
21 апреля, ср
ср2100:00+4зсз4794100 0.6 999386
03:00+4з61089100 0.6 1002700
06:00+4з61197100 0.0 1006814
09:00+5зюз61090100 0.1 1009787
12:00+9зюз6965100 0.1 10111285
15:00+11юз6960100 0.1 10121620
18:00+10зюз587057 0.8 1014920
21:00+7юз22795 1.0 101612
22 апреля, чт
чт2200:00+6ююз358698 0.0 101792
03:00+5юз348850 0.0 101860
06:00+5юз35825 0.0 101987
09:00+11ююз46655 0.0 1020473
12:00+14юз464821 0.0 10201923
15:00+14ююз565830 0.1 1019934
18:00+13ю466676 1.1 1020690
21:00+10ю348015 1.4 102077
23 апреля, пт
пт2300:00+9ю33855 0.4 102033
03:00+8ююв34875 0.4 102058
06:00+7ю358818 0.0 102086
09:00+11ю467388 0.0 1020382
12:00+15ююз45545 0.0 10181097
15:00+16ююз4644100 0.0 10172221
18:00+14ююз3764100 0.0 1016290
21:00+10ю49755 0.0 1016156